HAWK-B (43794 NORAD) Tracking and Keplerian Element Data

This shows tracking and keplerian element data for the satellite.

Feedback or suggestion? Click here.




ElementValue
Catalog43794
NameHAWK-B
Epoch Orbit3302
Epoch Day193.75164358
Epoch Year2019
RAAN265.6587
Inclination97.7414
Eccentricity0.0013572
Argument of Perigee253.17
Mean Anonmoly106.8032
Mean Motion14.95988715
Decay Rate5.94E-06
L11 43794U 18099AN 19193.75164358 .00000594 00000-0 58096-4 0 9996
L22 43794 97.7414 265.6587 0013572 253.1700 106.8032 14.95988715 33021

Live tracking and technical data element details for HAWK-B (NORAD 43794). HAWK-B can be tracked NOW for your location showing map with azimuth and elevation plus other details from your city location.

Track the satellite on the map from your city or location and see movement details for azimuth, elevation, latitude, longitude, range, height, and movement on the map or in text.







IsCatalogInMostPopularTable: catalog: 43794, numindb: 100
Update: records affected: 1



GetName: 43794 HAWK-B

Hit Count: updated at: Wed, 17 Jul 2019 09:04:18 GMT